Retour au catalogue

THORAD AGENA D DEB

ActifSSO
NORAD 42498·DEBRIS·🇺🇸 United States

Lancé Apr 8, 1970 depuis Vandenberg Space Force Base

Loading…

Prochains Passages (prochaines 24 heures)

TLE

VieillissantSource: Space-Track

Époque: Sep 6, 2026, 23:14 UTC

1 42498U 70025RC  26249.96808111  .00000921  00000-0  17955-2 0  9999
2 42498 100.5030 295.6049 0169116  99.7139 262.3129 13.34025748601790

Suivez THORAD AGENA D DEB en temps réel avec AllMySat

Download on the App Store